Tracking 18987 objects as of 26-Feb-2018
HD Live streaming from Space Station
objects crossing your sky now

FENGYUN 1C DEB

Track FENGYUN 1C DEB now!
10-day predictions


NORAD ID: 32357
Int'l Code: 1999-025CZA
Perigee: 664.7 km
Apogee: 1,518.9 km
Inclination: 98.9 °
Period: 106.9 minutes
Semi major axis: 7462 km
RCS: 0.0112 m2 (small)
Launch date: May 10, 1999
Source: People's Republic of China (PRC)
Launch site: Taiyaun Space Center, China (TSC)

Note: This is SATELLITE DEBRIS
aabbcc
Your satellite tracking list
Your tracking list is empty




NASA's NSSDC Master Catalog

Two Line Element Set (TLE):
1 32357U 99025CZA 18056.60302177 +.00000264 +00000-0 +18630-3 0  9994
2 32357 098.9111 340.1104 0572328 310.8116 170.7008 13.46633232283101
Source of the keplerian elements: AFSPC